Regional Weather Roundup
Issued by NWS

Home | Current Version | Previous Version | Graphics & Text | Print | Product List | Glossary On
Versions: 1 2 3 4 5 6 7 8 9 10 11 12 13 14 15 16 17 18 19 20 21 22 23 24 25 26 27 28 29 30 31 32 33 34 35 36 37 38 39 40 41 42 43 44 45 46 47 48 49 50
000
ASUS43 KMKX 241500
RWRWI

WISCONSIN REGIONAL WEATHER ROUNDUP
NATIONAL WEATHER SERVICE MILWAUKEE/SULLIVAN WI
1000 AM CDT SAT JUN 24 2017

NOTE: "FAIR" INDICATES FEW OR NO CLOUDS BELOW 12,000 FEET WITH NO
SIGNIFICANT WEATHER AND/OR OBSTRUCTIONS TO VISIBILITY.

WIZ001-002-006>008-014>016-023>028-241600-
NORTHWEST WISCONSIN

CITY           SKY/WX    TMP DP  RH WIND       PRES   REMARKS
SUPERIOR ARPT  NOT AVBL
ASHLAND        CLOUDY    57  50  77 W10G21    29.90R
HAYWARD        MOSUNNY   59  47  64 VRB3      29.93S
SIREN          CLOUDY    57  46  66 NW9       29.97R
CUMBERLAND     PTSUNNY   55  43  62 W17       29.96S
RICE LAKE      MOSUNNY   58  44  58 W13G18    29.98R
CHETEK         MOSUNNY   60  45  57 NW9G22    29.96S
LADYSMITH      CLOUDY    60  48  63 W14       29.95S
EAU CLAIRE     NOT AVBL
MENOMONIE      MOSUNNY   60  42  51 W16G25    29.98F
NEW RICHMOND   SUNNY     60  40  47 NW15G22   29.99S
OSCEOLA        SUNNY     59  42  52 W16       30.02S
$$

WIZ003>005-009-010-017-018-241600-
NORTH CENTRAL WISCONSIN

CITY           SKY/WX    TMP DP  RH WIND       PRES   REMARKS
MANITOWISH WTR CLOUDY    52  52 100 W9        29.89S
ARBOR VITAE    CLOUDY    57  52  83 NW8       29.89R
WOODRUFF       CLOUDY    57  52  83 NW8       29.89R
RHINELANDER    CLOUDY    56  51  84 W12       29.90R
EAGLE RIVER    CLOUDY    56  49  77 NW10      29.88S
LAND O LAKES   DRIZZLE   54  52  94 CALM      29.89S
PHILLIPS       CLOUDY    54  49  83 W6        29.91S
TOMAHAWK       NOT AVBL
MEDFORD        CLOUDY    57  47  69 NW12G23   29.93S
MERRILL        CLOUDY    56  50  81 NW10      29.92S
$$

WIZ029-030-035-036-043>047-241600-
CENTRAL WISCONSIN

CITY           SKY/WX    TMP DP  RH WIND       PRES   REMARKS
WAUSAU         CLOUDY    58  49  72 NW14      29.91R
MOSINEE        CLOUDY    59  52  77 W12G18    29.93S
MARSHFIELD     MOSUNNY   61  48  62 NW15G25   29.94R
STEVENS POINT  CLOUDY    59  48  67 W12       29.93S
WAUPACA        PTSUNNY   65  50  57 W8        29.92R
WAUTOMA        PTSUNNY   64  47  53 W13G22    29.93F
WISC RAPIDS    PTSUNNY   62  46  55 NW12G21   29.95S
CAMP DOUGLAS   NOT AVBL
$$

WIZ011>013-019>022-031-037>040-048>050-241600-
NORTHEAST WISCONSIN

CITY           SKY/WX    TMP DP  RH WIND       PRES   REMARKS
ANTIGO         CLOUDY    56  52  84 W12G20    29.90S
SHAWANO        CLOUDY    63  53  70 W6        29.88S
OCONTO         PTSUNNY   64  56  75 W8        29.86R
STURGEON BAY     N/A     63  55  75 NW9         N/A
GREEN BAY      MOSUNNY   66  58  75 W10       29.88S
MANITOWOC      NOT AVBL
APPLETON       PTSUNNY   63  48  59 W17G23    29.88S
CLINTONVILLE   CLOUDY    63  50  63 W12       29.89S
OSHKOSH        SUNNY     65  50  58 W14G23    29.90S
$$

WIZ032>034-041-042-053>061-241600-
SOUTHWEST WISCONSIN

CITY           SKY/WX    TMP DP  RH WIND       PRES   REMARKS
LA CROSSE      PTSUNNY   67  50  54 NW16G23   29.99R
SPARTA         CLOUDY    61  49  65 W7G17     29.98S
VIROQUA        PTSUNNY   60  52  74 W10       30.00S
BOSCOBEL       MOSUNNY   65  51  60 SW8       30.00R
PRAIRIE DU CHI SUNNY     64  48  56 NW14G21   30.01S
PLATTEVILLE    SUNNY     65  52  64 W9        30.01S
$$

WIZ056-057-062-063-064-067-068-241600-
SOUTH CENTRAL WISCONSIN

CITY           SKY/WX    TMP DP  RH WIND       PRES   REMARKS
REEDSBURG      MOSUNNY   64  47  54 NW10      29.96F
BARABOO/DELLS  CLOUDY    62  46  53 W10G16    29.96S
LONE ROCK      NOT AVBL
MINERAL POINT  SUNNY     64  52  63 W12       29.99S
MADISON        PTSUNNY   64  49  57 W8G17     29.96R
MIDDLETON      PTSUNNY   65  51  60 NW10G17   29.97S
WATERTOWN      MOSUNNY   64  53  66 W13       29.94S
MONROE         PTSUNNY   63  50  63 W12       29.99R
JANESVILLE     PTSUNNY   66  50  55 NW15G21   29.96S
$$

WIZ051-052-058>065-066-070>072-241600-
SOUTHEAST WISCONSIN

CITY           SKY/WX    TMP DP  RH WIND       PRES   REMARKS
MILWAUKEE      MOSUNNY   68  54  60 NW16G22   29.92R
WAUKESHA       MOSUNNY   63  52  67 NW14G21   29.94S
MILWAUKEE/TIMM MOSUNNY   66  52  59 NW14G20   29.92R
RACINE         SUNNY     68  53  58 W13       29.93R
KENOSHA        MOSUNNY   67  55  65 NW15      29.93S
FOND DU LAC    MOSUNNY   66  51  58 W14G20    29.91F
SHEBOYGAN      MOSUNNY   66  57  72 NW15G22   29.88S
WEST BEND      SUNNY     63  52  67 W16G22    29.91S
JUNEAU         MOSUNNY   62  51  66 W14       29.95R
$$

LSZ147-162-241600-
LAKE SUPERIOR

STATION/POSITION TIME  TEMP    WIND        PRES    WAVE
                       AIR SEA DIR/SP/G            HT/PER
                 (UTC) (F)     (DEG/KT/KT) (MB)    (FT/S)
W MID LAKE BUOY  1350   45 39  260/ 12/ 14 1010.6R   2/ 3
DEVILS ISLAND    1400   53     250/ 14/ 17 1011.6R
SAXON HARBOR     1440   58     250/  6/  8 1011.9R
$$

LMZ867-665-643>646-241600-
LAKE MICHIGAN

STATION/POSITION TIME  TEMP    WIND        PRES    WAVE
                       AIR SEA DIR/SP/G            HT/PER
                 (UTC) (F)     (DEG/KT/KT) (MB)    (FT/S)
CHAMBERS ISLAND  1440   63     250/  5/  6 1010.2S
S GREEN BAY BUOY 1430   61     280/ 10/ 12 1010.7R
N MID LAKE BUOY  1350   58 56  310/  8/ 10 1010.4R   1/ 4
NORTHPORT PIER   1440   62     320/  8/ 12 1010.5R
KEWAUNEE LAKESHO 1430   62     280/  8/ 12 1010.9R
SHEBOYGAN LAKESH 1400   63     310/ 14/ 17 1011.4R
PORT WASHINGTON  1440   66     290/  7/ 16 1013.2R
ATWATER BUOY     1309   61 56  290/ 16/ 17 1012.2R
MILWAUKEE LAKESH 1430   65     300/ 10/ 12   N/A
S MID LAKE BUOY  1350   62 61  320/ 14/ 16 1012.5R   3/ 5
KENOSHA   LAKESH 1400   65     280/ 14/ 19 1013.2
$$

TC  - TEMPERATURE IN CELSIUS
VSB - VISIBILITY IN STATUTE MILES
WCI - WIND CHILL INDEX
HX  - HEAT INDEX





USA.gov is the U.S. government's official web portal to all federal, state and local government web resources and services.